[Date Prev][Date Next][Thread Prev][Thread Next] - [Date Index][Thread Index][Author Index]

ISS TLE KEPS



ISS
1 25544U 98067A   01231.73494565  .00042100  00000-0  53800-3 0  9008
2 25544  51.6360 128.4139 0008313  13.5203 346.6173 15.56892904 37021
----
Via the sarex mailing list at AMSAT.ORG courtesy of AMSAT-NA.
To unsubscribe, send "unsubscribe sarex" to Majordomo@amsat.org



AMSAT Top AMSAT Home